This is the latest recevied weather packets stored in our database for station/object DB0SWS-13. If no packets are shown the sender has not sent any weather packets the latest 10 day(s).
| Time | Temp. | Humidity | Pressure | Rain* | Wind** | Luminosity | Snow |
|---|---|---|---|---|---|---|---|
| 1787446306 | 12.78° C | 71% | 1025.9 hPa | - | - | - | - |
| 1787445406 | 12.78° C | 70% | 1025.8 hPa | - | - | - | - |
| 1787444506 | 12.78° C | 70% | 1025.9 hPa | - | - | - | - |
| 1787443605 | 12.78° C | 70% | 1025.8 hPa | - | - | - | - |
| 1787442705 | 12.78° C | 70% | 1025.9 hPa | - | - | - | - |
| 1787441805 | 12.78° C | 69% | 1026 hPa | - | - | - | - |
| 1787440905 | 13.33° C | 69% | 1026.2 hPa | - | - | - | - |
| 1787440008 | 13.33° C | 68% | 1026.1 hPa | - | - | - | - |
| 1787439108 | 13.33° C | 67% | 1026.1 hPa | - | - | - | - |
| 1787438207 | 13.33° C | 67% | 1026.1 hPa | - | - | - | - |
| 1787437307 | 13.33° C | 66% | 1026.1 hPa | - | - | - | - |
| 1787436407 | 13.89° C | 66% | 1026 hPa | - | - | - | - |
| 1787435507 | 13.89° C | 65% | 1025.9 hPa | - | - | - | - |
| 1787434607 | 13.89° C | 65% | 1025.9 hPa | - | - | - | - |
| 1787433707 | 14.44° C | 63% | 1026 hPa | - | - | - | - |
| 1787432807 | 14.44° C | 63% | 1026 hPa | - | - | - | - |
| 1787431907 | 14.44° C | 62% | 1025.9 hPa | - | - | - | - |
| 1787431006 | 15° C | 63% | 1026 hPa | - | - | - | - |
| 1787430106 | 15° C | 63% | 1025.9 hPa | - | - | - | - |
| 1787429206 | 15.56° C | 61% | 1025.9 hPa | - | - | - | - |
| 1787428306 | 15.56° C | 60% | 1025.8 hPa | - | - | - | - |
| 1787427406 | 16.11° C | 59% | 1025.7 hPa | - | - | - | - |
| 1787426506 | 16.67° C | 58% | 1025.6 hPa | - | - | - | - |
| 1787425606 | 17.22° C | 57% | 1025.5 hPa | - | - | - | - |
| 1787424706 | 17.22° C | 56% | 1025.3 hPa | - | - | - | - |
* Rain since midnight (hover to see other rain measurements)
** Current wind speed in m/s (hover to see current wind gust speed)